TIME,DELAY(SENSOR),PRES,OXYGEN,RAWTEMP,T(OPTODE),TCPHASE,FLUOR,BETA(BETA700),BETA(BETA412),BETA(BETA440),CDOM,C(CSC),ED(ED412.20),ED(ED444.00),ED(ED489.60),ED(ED554.30),LU(LU412.10),LU(LU443.90),LU(LU489.70),LU(LU554.70),COMP,TILTX,TILTY,CHECK
1342840265,5809,905.6799926757812000,38.6385993957519500,557.7509155273438000,4.5555801391601560,55.6903800964355500,55,101,100,79,82,15560,0,0,0,0,2147123931,2147776795,2147569636,2147570294,2549,3,13,14086
1342843861,5808,979.3900146484375000,42.6840209960937500,566.9588012695312000,4.2700290679931640,55.1839408874511700,54,100,102,79,82,15559,0,0,0,0,2147121865,2147778852,2147577490,2147572315,1270,3,13,53637
1342847461,5812,992.1699829101562000,43.5220298767089840,568.5488281250000000,4.2206478118896480,55.0846900939941400,54,100,100,77,83,15556,0,0,0,0,2147122715,2147778496,2147573906,2147569252,77,3,13,41762
1342851061,5811,999.7700195312500000,43.3089294433593750,568.3048706054688000,4.2282238006591800,55.1127204895019500,55,98,100,79,84,15557,0,0,0,0,2147126610,2147771529,2147574601,2147570898,84,3,13,54361
1342854661,5808,993.0700073242188000,43.2419586181640600,569.7825927734375000,4.1823158264160160,55.1375999450683600,56,98,101,77,83,15554,0,0,0,0,2147122249,2147776950,2147571958,2147571977,58,3,13,44011
1342858261,5808,1007.6300048828125000,43.0620803833007800,569.5438232421875000,4.1897368431091310,55.1600494384765600,55,101,102,78,84,15555,0,0,0,0,2147120100,2147775872,2147570962,2147575021,389,3,13,46943
1342861861,5810,1010.7100219726562000,42.9449005126953100,569.4129028320312000,4.1938037872314450,55.1777305603027340,54,100,101,79,83,15553,0,0,0,0,2147123748,2147780086,2147576320,2147570724,204,3,13,55514
1342865461,5808,1008.3200073242188000,42.8618202209472660,569.5642700195312000,4.1890978813171390,55.1866989135742200,56,98,102,78,83,15556,0,0,0,0,2147121517,2147773211,2147572982,2147570669,445,3,13,60953
1342869061,5810,1010.0300292968750000,42.7780799865722660,569.2191772460938000,4.1998229026794430,55.1966896057128900,54,101,101,78,83,15550,0,0,0,0,2147126500,2147773979,2147573302,2147570148,193,3,13,15557
1342872661,5813,1011.5999755859375000,42.7180900573730500,570.0587768554688000,4.1737332344055180,55.2171211242675800,55,98,101,78,84,15555,0,0,0,0,2147129654,2147777097,2147569801,2147571492,29,3,13,65421
1342876261,5810,1019.7600097656250000,42.8460617065429700,569.1871948242188000,4.2008171081542970,55.1858406066894500,55,101,102,79,83,15552,0,0,0,0,2147121737,2147771538,2147571940,2147572425,97,3,13,54861
1342879861,5811,1021.0100097656250000,42.7395401000976560,568.6331176757812000,4.2180290222167970,55.1961784362793000,55,99,100,80,83,15552,0,0,0,0,2147120676,2147771136,2147574866,2147572571,309,3,13,47560
1342883461,5808,1013.7100219726562000,42.2468414306640600,569.0369262695312000,4.2054858207702640,55.2738685607910160,55,100,102,79,84,15554,0,0,0,0,2147125238,2147772818,2147571401,2147569078,405,3,13,15305
1342887061,5809,1013.8499755859375000,42.7004089355468750,569.9102783203125000,4.1783471107482910,55.2160911560058600,54,110,102,79,83,15552,0,0,0,0,2147122880,2147773732,2147572864,2147572781,62,3,13,20913
1342890661,5810,1013.6799926757812000,42.7198410034179700,569.6630859375000000,4.1860289573669430,55.2123184204101560,55,101,100,78,83,15553,0,0,0,0,2147122185,2147772608,2147570706,2147570660,348,3,13,49714
1342894261,5810,1014.9600219726562000,42.3446197509765600,569.1793823242188000,4.2010569572448730,55.2615509033203100,56,99,101,79,82,15526,0,0,0,0,2147126006,2147773110,2147572644,2147572224,386,3,13,801
1342897861,5809,1017.7999877929688000,42.2728996276855500,569.9556884765625000,4.1769351959228520,55.2808494567871100,55,100,101,79,83,15525,0,0,0,0,2147120484,2147771977,2147571099,2147568073,390,3,13,24174
1342901461,5810,1014.3499755859375000,42.6642608642578100,570.4893188476562000,4.1603550910949710,55.2269515991210940,55,100,102,78,84,15523,0,0,0,0,2147124260,2147768950,2147574701,2147572233,3437,3,13,16578
1342905061,5811,1012.7500000000000000,42.5991401672363300,570.9486083984375000,4.1460781097412110,55.2430496215820300,55,99,101,77,83,15523,0,0,0,0,2147125979,2147775040,2147571337,2147573165,388,3,13,50674
1342908661,5811,1013.6300048828125000,43.1740608215332000,571.6414794921875000,4.1245398521423340,55.1672096252441400,55,102,100,79,84,15526,0,0,0,0,2147125174,2147770313,2147572635,2147570660,133,3,13,21683
1342912261,5810,1018.7899780273438000,43.3011589050293000,571.6801757812500000,4.1233367919921875,55.1482200622558600,55,101,101,77,84,15523,0,0,0,0,2147125677,2147772498,2147572946,2147568950,274,3,13,25656
1342915861,5810,1020.2399902343750000,42.6927413940429700,569.9760131835938000,4.1763057708740230,55.2192382812500000,55,99,101,79,83,15523,0,0,0,0,2147124022,2147776777,2147576137,2147571483,222,3,13,64312
1342919461,5807,1020.0200195312500000,42.6444396972656250,569.9882202148438000,4.1759281158447270,55.2245903015136700,55,99,101,79,84,15523,0,0,0,0,2147126400,2147771474,2147569499,2147570898,242,3,13,44500
1342923061,5810,1017.2999877929688000,42.1506614685058600,571.0213012695312000,4.1438198089599610,55.3070297241210940,55,99,100,78,82,15522,0,0,0,0,2147122678,2147776182,2147567643,2147572992,63,3,13,13870
1342926661,5808,1019.2500000000000000,42.6501388549804700,570.9552001953125000,4.1458740234375000,55.2328605651855500,54,99,101,78,84,15522,0,0,0,0,2147125421,2147775899,2147575405,2147570761,395,3,13,61012
1342930261,5809,1014.2600097656250000,42.3413887023925800,569.9708862304688000,4.1764640808105470,55.2720298767089840,55,100,102,78,82,15522,0,0,0,0,2147122276,2147770852,2147570962,2147571437,2965,3,13,61874
1342933861,5808,1022.7100219726562000,42.0960197448730500,570.0059204101562000,4.1753768920898440,55.3069381713867200,54,99,102,79,82,15522,0,0,0,0,2147123017,2147772836,2147573193,2147571821,3580,3,13,16226
1342937461,5813,1021.2199707031250000,41.9275588989257800,570.1060791015625000,4.1722621917724610,55.3291206359863300,55,98,100,78,82,15521,0,0,0,0,2147122989,2147770240,2147571995,2147568621,6,3,13,7491
1342941061,5811,1015.0900268554688000,41.8770484924316400,570.1055297851562000,4.1722831726074220,55.3390197753906250,54,100,100,78,83,15514,0,0,0,0,2147116946,2147774308,2147571538,2147572690,3508,3,13,16075
1342944661,5810,1019.1300048828125000,42.2486190795898440,570.0084838867188000,4.1752967834472660,55.2810897827148440,55,99,101,77,82,15520,0,0,0,0,2147123108,2147770468,2147571172,2147572800,127,3,13,49267
1342948261,5812,1010.9600219726562000,42.2449493408203100,570.5913696289062000,4.1571831703186035,55.2874603271484400,55,101,101,79,83,15512,0,0,0,0,2147123072,2147770102,2147569261,2147571584,2966,3,13,60019
1342951861,5811,1016.7700195312500000,43.2221488952636700,571.9979858398438000,4.1134529113769530,55.1643409729003900,55,99,102,77,83,15513,0,0,0,0,2147123273,2147776512,2147572580,2147569536,132,3,13,54252
1342955461,5809,1026.0000000000000000,42.2702484130859400,570.4052124023438000,4.1629700660705570,55.2827186584472660,55,100,100,78,83,15511,0,0,0,0,2147123712,2147774564,2147575707,2147574125,197,3,13,45055
1342959061,5810,1027.9499511718750000,42.6362495422363300,569.6898193359375000,4.1852002143859860,55.2250785827636700,55,100,102,79,83,15511,0,0,0,0,2147124379,2147778221,2147573604,2147572086,90,3,13,60598
1342962661,5810,1018.7299804687500000,41.8145103454589840,570.0388183593750000,4.1743559837341310,55.3490905761718750,54,100,101,79,83,15507,0,0,0,0,2147125540,2147773202,2147569536,2147571017,151,3,13,11353
1342966261,5809,1020.4400024414062000,41.9488182067871100,569.9462280273438000,4.1772332191467285,55.3257217407226560,55,100,102,79,83,15511,0,0,0,0,2147124333,2147778093,2147575177,2147572105,3595,3,13,64779
1342969861,5810,1024.5699462890625000,42.3610115051269500,570.6494140625000000,4.1553797721862790,55.2726097106933600,55,98,100,77,83,15509,0,0,0,0,2147124781,2147774006,2147575835,2147569325,114,3,13,50554
1342973461,5813,1017.5800170898438000,41.7603607177734400,570.3142700195312000,4.1657919883728030,55.3557510375976560,55,99,101,79,83,15513,0,0,0,0,2147126921,2147772790,2147573504,2147572379,3376,3,13,16357
1342977061,5809,1025.8199462890625000,43.1057014465332000,571.2188720703125000,4.1376781463623050,55.1690902709960940,55,100,101,77,83,15513,0,0,0,0,2147124909,2147775634,2147576978,2147570514,3401,3,13,26769
1342980661,5809,1028.1800537109375000,42.1430511474609400,569.6823120117188000,4.1854338645935060,55.2952995300293000,55,102,101,78,83,15513,0,0,0,0,2147122678,2147773659,2147569718,2147571218,457,3,13,40235
1342984261,5808,1025.3900146484375000,42.0800895690918000,569.7047729492188000,4.1847338676452640,55.3059806823730500,55,102,100,78,83,15511,0,0,0,0,2147122971,2147773513,2147574875,2147574052,766,3,13,33398
1342985156,5809,1023.8300170898438000,41.8126106262207000,569.9160766601562000,4.1781668663024900,55.3443717956543000,56,98,104,78,84,15505,0,0,0,0,2147123264,2147775030,2147574884,2147568987,3518,3,13,17916
